Farmingdale, NJ

4:33 AM EDT on September 27, 2016 (GMT -0400)
Allaire

Weather History for KBLM - November, 2012

Change the Weather History Date:

Friday, November 16, 2012

  Actual Average Record
Temperature  
Mean Temperature 40 °F -  
Max Temperature 46 °F 51 °F 71 °F (2005)
Min Temperature 33 °F 35 °F 21 °F (1996)
Degree Days  
Heating Degree Days 26    
Moisture  
Dew Point 29 °F    
Average Humidity 66    
Maximum Humidity 81    
Minimum Humidity 46    
Precipitation  
Precipitation 0.00 in - - ()
Sea Level Pressure  
Sea Level Pressure 30.33 in    
Wind  
Wind Speed 7 mph (NNW)    
Max Wind Speed 10 mph    
Max Gust Speed -    
Visibility 10 miles    
Events      
Averages and records for this station are not official NWS values.
T = Trace of Precipitation, MM = Missing Value Source: NWS Daily Summary

Daily Weather History Graph

Daily Weather History Graph

Search for Another Location

Airport or City:

Trip Planner

Search our weather history database for the weather conditions in past years. The results will help you decide how hot, cold, wet, or windy it might be!

Date:

Astronomy

Nov. 16, 2012 Rise Set
Actual Time 6:43 AM EST 4:38 PM EST
Civil Twilight 6:14 AM EST 5:07 PM EST
Nautical Twilight 5:41 AM EST 5:40 PM EST
Astronomical Twilight 5:09 AM EST 6:12 PM EST
Moon 9:35 AM EST (11/16) 7:35 PM EST (11/16)
Length of Visible Light 10h 53m
Length of Day
9h 54m
Waxing Crescent, 11% of the Moon is Illuminated
Nov 16
Waxing Crescent
Nov 20
First Quarter
Nov 28
Full
Dec 6
Last Quarter
Dec 13
New

Hourly Weather History & Observations

Time (EST) Temp. Windchill Dew Point Humidity Pressure Visibility Wind Dir Wind Speed Gust Speed Precip Events Conditions
12:15 AM 37.4 °F 32.1 °F 32.0 °F 81% 30.28 in 10.0 mi North 6.9 mph - N/A   Clear
12:35 AM 37.4 °F 31.4 °F 32.0 °F 81% 30.28 in 10.0 mi North 8.1 mph - N/A   Clear
12:55 AM 37.4 °F 32.8 °F 30.2 °F 75% 30.28 in 10.0 mi NNW 5.8 mph - N/A   Clear
1:15 AM 37.4 °F 32.8 °F 30.2 °F 75% 30.28 in 10.0 mi NNW 5.8 mph - N/A   Clear
1:35 AM 37.4 °F 32.1 °F 30.2 °F 75% 30.28 in 10.0 mi NNW 6.9 mph - N/A   Clear
1:55 AM 37.4 °F 32.1 °F 30.2 °F 75% 30.28 in 10.0 mi NNW 6.9 mph - N/A   Clear
2:15 AM 37.4 °F 33.8 °F 30.2 °F 75% 30.29 in 10.0 mi WNW 4.6 mph - N/A   Clear
2:35 AM 37.4 °F 32.8 °F 30.2 °F 75% 30.29 in 10.0 mi NW 5.8 mph - N/A   Clear
2:55 AM 37.4 °F 32.1 °F 30.2 °F 75% 30.29 in 10.0 mi NW 6.9 mph - N/A   Clear
3:15 AM 35.6 °F 30.7 °F 30.2 °F 81% 30.28 in 10.0 mi NW 5.8 mph - N/A   Clear
3:35 AM 35.6 °F 31.7 °F 30.2 °F 81% 30.29 in 10.0 mi WNW 4.6 mph - N/A   Clear
3:55 AM 35.6 °F 30.7 °F 30.2 °F 81% 30.29 in 10.0 mi NW 5.8 mph - N/A   Clear
4:15 AM 35.6 °F 30.7 °F 30.2 °F 81% 30.29 in 10.0 mi NNW 5.8 mph - N/A   Clear
4:35 AM 35.6 °F 30.7 °F 30.2 °F 81% 30.29 in 10.0 mi NW 5.8 mph - N/A   Clear
4:55 AM 35.6 °F 29.9 °F 28.4 °F 75% 30.28 in 10.0 mi North 6.9 mph - N/A   Clear
5:15 AM 37.4 °F 31.4 °F 28.4 °F 70% 30.28 in 10.0 mi North 8.1 mph - N/A   Clear
5:35 AM 37.4 °F 32.8 °F 28.4 °F 70% 30.29 in 10.0 mi NW 5.8 mph - N/A   Clear
5:55 AM 35.6 °F 30.7 °F 28.4 °F 75% 30.29 in 10.0 mi NNW 5.8 mph - N/A   Clear
6:15 AM 35.6 °F 29.9 °F 28.4 °F 75% 30.29 in 10.0 mi North 6.9 mph - N/A   Clear
6:35 AM 35.6 °F 29.9 °F 28.4 °F 75% 30.29 in 10.0 mi NW 6.9 mph - N/A   Clear
6:55 AM 35.6 °F 30.7 °F 28.4 °F 75% 30.30 in 10.0 mi NW 5.8 mph - N/A   Clear
7:15 AM 35.6 °F 30.7 °F 28.4 °F 75% 30.30 in 10.0 mi NNW 5.8 mph - N/A   Partly Cloudy
7:35 AM 37.4 °F 33.8 °F 30.2 °F 75% 30.30 in 10.0 mi NW 4.6 mph - N/A   Clear
7:55 AM 37.4 °F 33.8 °F 30.2 °F 75% 30.31 in 10.0 mi WNW 4.6 mph - N/A   Clear
8:15 AM 39.2 °F 35.0 °F 30.2 °F 70% 30.31 in 10.0 mi NW 5.8 mph - N/A   Clear
8:35 AM 39.2 °F 34.2 °F 30.2 °F 70% 30.31 in 10.0 mi NNW 6.9 mph - N/A   Clear
8:55 AM 39.2 °F 33.6 °F 30.2 °F 70% 30.32 in 10.0 mi NNW 8.1 mph - N/A   Clear
9:15 AM 41.0 °F 37.1 °F 30.2 °F 65% 30.33 in 10.0 mi NW 5.8 mph - N/A   Clear
9:35 AM 42.8 °F 38.0 °F 30.2 °F 61% 30.33 in 10.0 mi North 8.1 mph - N/A   Clear
9:55 AM 42.8 °F 37.5 °F 30.2 °F 61% 30.33 in 10.0 mi North 9.2 mph - N/A   Clear
10:15 AM 42.8 °F 38.0 °F 30.2 °F 61% 30.33 in 10.0 mi NNW 8.1 mph - N/A   Clear
10:35 AM 42.8 °F 38.0 °F 32.0 °F 66% 30.33 in 10.0 mi North 8.1 mph - N/A   Clear
10:55 AM 42.8 °F 37.0 °F 30.2 °F 61% 30.33 in 10.0 mi NNW 10.4 mph - N/A   Clear
11:15 AM 42.8 °F 37.0 °F 30.2 °F 61% 30.32 in 10.0 mi North 10.4 mph - N/A   Clear
11:35 AM 44.6 °F 39.7 °F 30.2 °F 57% 30.31 in 10.0 mi North 9.2 mph - N/A   Clear
11:55 AM 44.6 °F 39.7 °F 28.4 °F 53% 30.31 in 10.0 mi North 9.2 mph - N/A   Clear
12:15 PM 46.4 °F 41.5 °F 28.4 °F 50% 30.31 in 10.0 mi North 10.4 mph - N/A   Clear
12:35 PM 46.4 °F 41.5 °F 28.4 °F 50% 30.30 in 10.0 mi North 10.4 mph - N/A   Clear
12:55 PM 46.4 °F 41.9 °F 28.4 °F 50% 30.30 in 10.0 mi NNW 9.2 mph - N/A   Clear
1:15 PM 46.4 °F 41.9 °F 28.4 °F 50% 30.31 in 10.0 mi North 9.2 mph - N/A   Clear
1:35 PM 46.4 °F 42.4 °F 26.6 °F 46% 30.31 in 10.0 mi North 8.1 mph - N/A   Clear
1:55 PM 46.4 °F 42.9 °F 28.4 °F 50% 30.31 in 10.0 mi North 6.9 mph - N/A   Clear
2:15 PM 46.4 °F 41.9 °F 28.4 °F 50% 30.31 in 10.0 mi North 9.2 mph - N/A   Scattered Clouds
2:35 PM 46.4 °F 42.9 °F 28.4 °F 50% 30.31 in 10.0 mi North 6.9 mph - N/A   Partly Cloudy
2:55 PM 46.4 °F 42.4 °F 28.4 °F 50% 30.31 in 10.0 mi North 8.1 mph - N/A   Partly Cloudy
3:15 PM 44.6 °F 41.4 °F 26.6 °F 49% 30.32 in 10.0 mi North 5.8 mph - N/A   Partly Cloudy
3:35 PM 44.6 °F 40.2 °F 28.4 °F 53% 30.33 in 10.0 mi North 8.1 mph - N/A   Clear
3:55 PM 44.6 °F 39.2 °F 26.6 °F 49% 30.33 in 10.0 mi NNW 10.4 mph - N/A   Clear
4:15 PM 44.6 °F 39.7 °F 26.6 °F 49% 30.33 in 10.0 mi North 9.2 mph - N/A   Clear
4:35 PM 44.6 °F 40.7 °F 26.6 °F 49% 30.33 in 10.0 mi NNW 6.9 mph - N/A   Clear
4:55 PM 42.8 °F 39.3 °F 26.6 °F 53% 30.33 in 10.0 mi NNW 5.8 mph - N/A   Clear
5:15 PM 42.8 °F 41.1 °F 26.6 °F 53% 30.34 in 10.0 mi NW 3.5 mph - N/A   Clear
5:35 PM 41.0 °F 39.0 °F 26.6 °F 57% 30.35 in 10.0 mi NW 3.5 mph - N/A   Clear
5:55 PM 41.0 °F 38.0 °F 26.6 °F 57% 30.35 in 10.0 mi NW 4.6 mph - N/A   Clear
6:15 PM 39.2 °F 37.0 °F 26.6 °F 61% 30.36 in 10.0 mi WNW 3.5 mph - N/A   Clear
6:35 PM 39.2 °F 35.9 °F 26.6 °F 61% 30.37 in 10.0 mi NW 4.6 mph - N/A   Clear
6:55 PM 39.2 °F 35.9 °F 26.6 °F 61% 30.37 in 10.0 mi NW 4.6 mph - N/A   Clear
7:15 PM 37.4 °F 33.8 °F 26.6 °F 65% 30.38 in 10.0 mi NW 4.6 mph - N/A   Clear
7:35 PM 37.4 °F 33.8 °F 26.6 °F 65% 30.37 in 10.0 mi NNW 4.6 mph - N/A   Clear
7:55 PM 39.2 °F 35.9 °F 28.4 °F 65% 30.38 in 10.0 mi North 4.6 mph - N/A   Clear
8:15 PM 37.4 °F 32.8 °F 28.4 °F 70% 30.39 in 10.0 mi NNW 5.8 mph - N/A   Clear
8:35 PM 35.6 °F 31.7 °F 28.4 °F 75% 30.40 in 10.0 mi NNW 4.6 mph - N/A   Clear
8:55 PM 37.4 °F 32.1 °F 28.4 °F 70% 30.40 in 10.0 mi North 6.9 mph - N/A   Clear
9:15 PM 37.4 °F 33.8 °F 26.6 °F 65% 30.41 in 10.0 mi NNW 4.6 mph - N/A   Clear
9:35 PM 35.6 °F 31.7 °F 26.6 °F 70% 30.41 in 10.0 mi NW 4.6 mph - N/A   Clear
9:55 PM 35.6 °F 30.7 °F 26.6 °F 70% 30.41 in 10.0 mi NNW 5.8 mph - N/A   Clear
10:15 PM 33.8 °F 29.6 °F 26.6 °F 75% 30.41 in 10.0 mi NNW 4.6 mph - N/A   Clear
10:55 PM 33.8 °F 29.6 °F 26.6 °F 75% 30.41 in 10.0 mi North 4.6 mph - N/A   Clear
11:15 PM 35.6 °F 31.7 °F 26.6 °F 70% 30.41 in 10.0 mi North 4.6 mph - N/A   Clear
11:35 PM 35.6 °F 30.7 °F 26.6 °F 70% 30.42 in 10.0 mi North 5.8 mph - N/A   Clear
11:55 PM 35.6 °F 30.7 °F 26.6 °F 70% 30.42 in 10.0 mi North 5.8 mph - N/A   Clear